SCOUT X-4 R/B, 1358

Orbit data source: Space-Track

SCOUT X-4 R/B, 1358 is space debris in LEO originally from a launch on Thu, 29 Apr 1965 UTC launched from the Wallops Island (WLPIS). Debris objects in space refer to the collection of defunct objects orbiting the Earth. Examples of debris include non-operational satellites, rocket bodies, and fragments generated from explosions, collisions, or faulty payload assembly.

Loading next visibility...
Identifier
1358, 1965-032B
Orbit
LEO
Country
Flag of USUS
Related business
Manufacturer
ABL
Mission
Spacecraft
Bus & Motor
ALTAIR, Unknown motor
Mass
33 kg wet, 33 kg dry
Launch date (UTC)
1965-04-29 (61 years ago)
Launch vehicle
Unknown
Launch site
Wallops Island (WLPIS)
Object type
Payload
Rocket body
Debris
Shape & HBR
Unknown
Radar Cross Section
Medium (>0.1 m² and <1 m²)

Expand to show TLE details & history
Last TLE update: 10 hours ago

TLE from 10 hours ago
0 SCOUT X-4 R/B
1 01358U 65032B   26101.10299269 -.00000041  00000-0  58903-4 0  9996
2 01358  41.1934 354.6121 0244523 235.2231 122.5284 13.38244020978680
Epoch: 2026-04-11T02:28Z
TLE epoch observation values (Epoch: 2026-04-11T02:28:18.568Z)
Latitude
0.00001°
Longitude
118.20763°
Altitude
1,217.078 km
Speed
7.198 km/s
True Right ascension
23h 38m 26s
True Declination
0° 00' 00"
Sunlit
Object was in daylight at epoch
Visualization orbit readout
Latitude
Unknown
Longitude
Unknown
Altitude
Unknown
Speed
Unknown
Apparent Right ascension
Unknown
Apparent Declination
Unknown
Sunlit
N/A
Visualization observer readout
Local Sidereal Time
18:18:20
Azimuth
Unknown
Elevation
Unknown
Doppler factor
Unknown
Orbital elements
Apogee altitude
1,301.183 km
Perigee altitude
934.593 km
Semi-major axis
7,496.025 km
Eccentricity
0.02445
Inclination
41.1934°
RAAN
354.6121°
Arg. of periapsis
235.2231°
True anomaly
124.852°
Mean anomaly
122.5284°
Eccentric anomaly
123.69406°
Mean motion
3.34423 °/min
Orbital period
107.65 mins
BSTAR
0.000058903
Loading maneuver chart data...
Computing Atmospheric mass density...
Loading historical data...
Loading historical data...
Loading historical data...
Loading historical data...
Loading historical data...
Loading historical data...
Loading historical data...
Other satellites on launch #32 in the year 1965 (1965-04-29 UTC)

Documentation

Showing up to 5 results
|